Temp_Advection
nan nan nan nan nan nan nan nan nan nan nan nan nan nan nan nan nan nan nan nan nan nan nan nan nan nan nan nan nan nan nan nan
nan -0 -0 -0 -0 -0 0 0 -0 -0 -0 -0 -0 -0 -0 -0 -0 0 0 0 0 -0 -0 -0 -0 -0 -0 -0 0 -0 -0 nan
nan -0 -0 -0 -0 -0 -0 0 0 0 -0 -0 -0 -0 -0 -0 0 0 0 -0 -0 -0 0 0 0 -0 0 0 -0 -1 -1 nan
nan -0 -0 -0 -0 -0 -0 -0 -0 -0 -0 -0 -0 -0 0 -0 -0 -0 -0 -0 -0 0 0 0 -0 -0 0 -0 -1 -0 -1 nan
nan -1 -0 -0 -0 -0 -0 -0 -0 -0 -0 -0 0 -0 -0 -0 -0 0 -0 -0 -0 -0 -0 -0 -0 -0 -0 0 0 -0 -0 nan
nan -0 -0 -0 -0 -0 0 0 0 0 0 0 0 0 -0 -0 -0 -0 -0 -1 -1 -0 -0 -0 -0 -0 -0 -0 -0 -1 -0 nan
nan -0 -0 -0 -0 -0 0 -0 0 0 0 0 0 0 0 0 0 -0 0 -0 -1 -0 -0 -0 -0 -0 -0 -0 -1 -0 -0 nan
nan -0 -0 -0 -0 -0 -0 -0 -0 0 0 0 0 0 0 0 0 0 0 0 -0 -0 -0 -0 -0 -0 -0 -0 -0 -0 -0 nan
nan -0 -0 0 0 -0 -0 -0 0 0 0 0 -0 0 0 0 0 0 0 0 -0 -0 -0 -0 -0 -1 -0 -0 -0 -0 -0 nan
nan -0 0 0 0 0 0 0 0 0 0 0 -0 0 0 -0 0 0 0 0 -0 -0 -0 -0 -0 -1 -1 -0 0 -0 -0 nan
nan 0 1 1 0 0 0 1 1 0 0 -0 -0 0 0 0 0 0 0 0 0 -0 -0 -0 -0 -0 -0 -0 0 -0 -0 nan
nan 1 1 1 1 1 1 1 1 0 0 0 -0 0 0 0 0 0 0 0 0 0 0 0 0 -0 -0 -0 0 -0 -0 nan
nan 1 1 1 1 1 0 1 1 0 0 -0 -0 0 0 0 0 0 0 0 -0 0 0 0 0 0 -0 -0 -0 -0 -0 nan
nan 1 1 1 1 1 1 1 -0 -0 0 -0 0 0 1 1 0 0 0 0 0 0 0 0 0 0 0 0 0 0 -0 nan
nan 1 1 1 1 1 1 -0 -1 -0 0 0 0 1 1 0 0 0 0 0 0 0 0 0 0 0 0 0 0 0 0 nan
nan 1 1 1 1 1 1 -1 -1 1 2 1 1 0 1 0 -0 0 0 0 0 0 0 0 -0 -0 -0 -0 0 0 1 nan
nan 1 1 1 1 1 0 -1 2 2 1 1 1 0 0 0 0 0 0 1 0 0 0 0 0 -0 -1 0 0 -0 1 nan
nan 1 1 1 1 1 -0 1 2 1 1 1 0 0 1 1 1 0 0 0 0 0 0 0 0 -0 -1 -0 0 -0 -0 nan
nan nan nan nan nan nan nan nan nan nan nan nan nan nan nan nan nan nan nan nan nan nan nan nan nan nan nan nan nan nan nan nan
Wind_Speed
15 15 15 15 15 15 15 14 13 11 10 9 9 9 9 9 9 9 10 12 13 13 12 14 12 13 15 16 15 15 13 16
16 16 16 16 15 14 14 13 13 10 9 8 7 7 7 8 8 10 11 13 15 16 12 14 13 13 15 15 15 15 14 17
18 17 16 15 15 15 13 11 10 9 7 7 7 7 7 7 7 9 12 13 16 16 17 13 14 11 14 15 18 16 14 16
21 20 17 16 15 14 11 9 9 8 8 8 6 6 6 5 5 7 12 13 17 19 17 14 13 12 14 16 17 16 15 14
21 21 19 17 15 13 12 10 9 7 8 5 4 3 2 2 3 7 13 13 17 18 15 13 14 13 16 16 16 16 14 13
22 21 18 16 15 14 13 11 9 8 7 7 4 4 3 1 1 4 7 11 16 15 12 12 13 14 16 17 18 16 12 11
21 19 18 16 14 13 13 12 10 8 7 6 6 6 4 2 2 2 3 5 10 13 12 12 14 15 17 17 16 12 12 11
22 20 20 18 17 15 13 11 9 8 8 7 6 5 5 3 1 2 3 4 7 10 10 12 13 15 16 17 13 11 11 11
22 19 20 19 17 15 14 13 11 10 8 8 6 6 3 3 5 3 6 5 7 9 10 12 13 13 14 15 9 10 12 11
23 20 19 19 18 18 16 15 13 11 10 8 8 8 7 8 10 8 8 6 6 10 11 12 12 13 14 14 8 10 12 12
23 21 20 19 19 18 16 15 15 13 11 10 9 10 10 10 9 9 8 9 8 10 12 11 11 11 13 13 10 11 12 11
24 22 20 20 19 19 17 17 16 15 13 11 11 10 10 10 9 9 8 9 9 10 11 10 11 11 12 12 11 10 12 12
25 23 21 21 22 20 19 18 16 15 14 12 12 12 11 11 9 9 9 8 10 10 11 9 10 11 12 11 11 11 12 13
25 24 23 22 22 21 20 19 17 16 15 14 13 12 11 9 9 9 9 9 10 10 10 10 11 12 10 10 10 12 12 14
25 25 24 22 22 23 21 20 22 19 15 14 14 12 10 9 9 9 11 11 11 11 10 10 11 10 9 9 12 14 14 14
26 26 24 23 23 23 23 25 22 18 19 16 14 12 10 10 10 11 12 12 11 10 9 9 10 10 10 14 16 17 16 16
25 26 26 26 26 25 25 25 25 20 18 16 14 12 11 11 11 11 11 11 9 9 9 9 9 8 18 15 17 19 18 15
23 27 28 27 27 26 27 28 22 20 18 16 15 14 12 12 11 10 10 9 9 10 9 10 10 11 20 18 18 19 18 14
19 23 26 26 25 26 27 22 22 21 19 17 16 15 13 12 11 11 10 10 10 10 10 10 10 12 21 21 18 19 15 14
Wind_Direction
138 137 136 132 129 131 133 131 126 117 109 103 102 97 85 76 64 53 53 40 37 41 23 24 26 22 20 18 15 6 358 349
145 144 142 140 139 138 138 139 123 117 115 114 106 103 95 78 64 57 35 27 28 29 26 19 32 20 20 15 12 3 1 352
154 154 153 150 148 148 148 142 135 132 123 131 132 122 105 90 66 29 18 19 17 11 11 16 18 24 13 13 13 7 1 358
163 161 162 161 158 155 153 150 139 141 144 132 123 97 90 63 44 27 6 4 1 0 2 11 16 15 13 12 8 9 2 2
167 165 169 170 168 163 158 156 154 151 139 151 136 145 149 110 68 0 346 349 352 353 359 5 8 8 7 6 1 7 4 360
173 172 175 175 175 171 165 162 162 169 168 166 144 158 127 119 59 0 357 349 348 352 353 355 358 359 359 358 357 358 4 1
175 177 178 179 175 175 170 169 174 173 166 170 170 170 170 187 202 333 347 355 339 342 347 351 349 351 352 355 354 357 356 359
180 181 183 185 182 180 176 177 178 174 171 168 175 180 189 204 191 281 312 331 325 330 336 338 341 345 348 351 354 358 350 352
188 189 190 193 189 187 183 185 187 185 180 180 207 223 193 209 247 269 294 308 307 323 330 331 334 338 345 349 352 351 342 343
198 198 198 199 196 196 191 189 189 189 190 201 227 235 225 247 275 288 298 303 321 323 326 332 337 341 345 350 337 343 338 336
203 204 202 203 201 200 195 193 194 190 204 217 231 242 251 264 278 286 290 298 307 317 324 330 333 335 336 342 335 331 331 331
208 207 209 205 203 200 196 193 194 206 214 215 232 247 258 268 274 282 281 290 303 310 316 324 323 325 329 332 328 330 324 322
210 211 209 202 199 198 196 192 199 207 210 220 234 252 259 265 266 269 275 282 299 304 311 313 313 317 323 323 323 320 321 320
210 210 208 202 198 195 194 195 197 214 215 228 239 250 255 253 255 261 275 284 291 298 301 302 306 309 317 316 320 318 317 314
211 211 210 205 200 195 192 193 211 217 215 225 238 243 243 245 251 261 273 281 289 291 293 296 303 308 308 301 312 314 315 310
215 214 213 208 202 197 195 206 218 226 223 216 229 236 234 235 250 261 270 280 282 284 290 290 295 299 288 302 314 317 315 312
221 217 215 210 205 202 200 208 215 216 210 216 218 227 233 240 250 256 267 280 284 281 282 281 286 291 284 308 317 318 319 312
225 219 215 212 209 208 207 213 212 211 208 215 217 231 235 238 246 250 264 266 266 273 273 277 281 281 290 311 318 318 319 310
227 219 215 212 210 209 209 202 211 212 211 214 217 229 229 231 236 244 254 261 263 267 268 272 279 281 283 304 316 319 312 305
Height
1571 1574 1576 1577 1577 1578 1578 1580 1579 1581 1582 1582 1584 1585 1586 1587 1586 1584 1584 1582 1580 1580 1579 1576 1576 1572 1570 1567 1566 1565 1565 1561
1574 1575 1576 1577 1577 1578 1579 1581 1580 1582 1584 1585 1587 1588 1588 1587 1586 1585 1583 1581 1579 1578 1578 1576 1574 1572 1570 1569 1567 1566 1565 1561
1573 1576 1577 1578 1578 1579 1580 1582 1582 1584 1586 1587 1588 1588 1588 1587 1585 1584 1583 1581 1579 1578 1576 1575 1573 1572 1570 1567 1566 1565 1564 1562
1571 1574 1577 1578 1579 1578 1582 1583 1583 1585 1584 1585 1586 1586 1587 1589 1588 1585 1583 1581 1579 1578 1576 1575 1573 1572 1569 1567 1565 1564 1563 1562
1571 1572 1575 1577 1577 1578 1580 1581 1582 1583 1585 1587 1588 1589 1589 1588 1587 1584 1583 1581 1579 1577 1576 1574 1573 1571 1569 1567 1565 1564 1563 1562
1568 1571 1574 1576 1577 1577 1578 1580 1583 1583 1583 1585 1586 1587 1587 1587 1586 1585 1583 1580 1578 1577 1576 1575 1573 1571 1568 1566 1564 1563 1563 1562
1567 1570 1573 1575 1577 1578 1578 1579 1581 1582 1583 1584 1585 1585 1586 1586 1586 1586 1584 1581 1579 1576 1575 1574 1572 1570 1568 1566 1564 1563 1562 1560
1563 1568 1571 1572 1574 1576 1577 1580 1581 1581 1581 1582 1583 1584 1584 1583 1584 1583 1582 1581 1578 1575 1574 1574 1572 1569 1567 1564 1564 1562 1560 1558
1561 1564 1568 1571 1572 1574 1576 1578 1580 1580 1581 1580 1580 1581 1583 1582 1581 1580 1578 1577 1575 1573 1573 1572 1570 1567 1565 1563 1563 1561 1559 1557
1558 1562 1565 1569 1570 1572 1573 1576 1577 1578 1579 1578 1578 1578 1579 1579 1578 1577 1575 1574 1573 1571 1570 1569 1567 1565 1563 1561 1561 1559 1556 1555
1554 1558 1561 1564 1566 1569 1570 1573 1574 1574 1574 1575 1574 1574 1575 1575 1575 1574 1573 1571 1571 1569 1568 1567 1565 1564 1561 1559 1558 1556 1554 1553
1551 1555 1558 1560 1562 1565 1567 1569 1570 1570 1570 1571 1571 1571 1572 1572 1571 1570 1569 1568 1568 1567 1566 1564 1563 1562 1559 1557 1556 1555 1552 1551
1546 1551 1554 1556 1558 1560 1562 1564 1565 1567 1568 1569 1568 1568 1568 1568 1568 1567 1566 1566 1565 1564 1563 1562 1561 1559 1557 1555 1553 1551 1550 1548
1541 1546 1549 1551 1553 1556 1558 1559 1561 1563 1566 1564 1565 1565 1565 1565 1564 1564 1564 1563 1562 1561 1560 1559 1558 1556 1554 1553 1551 1549 1547 1544
1536 1541 1543 1546 1548 1550 1552 1554 1554 1557 1560 1563 1562 1561 1561 1562 1561 1561 1560 1560 1559 1558 1556 1556 1554 1553 1551 1550 1547 1544 1542 1540
1532 1536 1539 1542 1544 1546 1546 1546 1549 1552 1553 1555 1558 1558 1558 1558 1558 1558 1557 1557 1556 1554 1553 1552 1551 1550 1548 1545 1543 1540 1537 1535
1525 1529 1532 1535 1537 1539 1540 1541 1544 1546 1550 1551 1553 1554 1554 1554 1554 1554 1553 1553 1552 1551 1550 1549 1548 1547 1542 1541 1539 1536 1533 1531
1519 1522 1526 1529 1531 1532 1535 1537 1540 1542 1545 1546 1548 1549 1550 1551 1551 1551 1550 1550 1549 1548 1547 1546 1544 1543 1538 1536 1534 1531 1528 1528
1514 1518 1521 1524 1526 1528 1530 1534 1536 1538 1541 1542 1543 1545 1546 1547 1547 1547 1546 1546 1545 1544 1543 1542 1540 1539 1534 1532 1530 1526 1525 1524